This is the latest recevied weather packets stored in our database for station/object LZ1ASO-10. If no packets are shown the sender has not sent any weather packets the latest 1 day(s).
| Time | Temp. | Humidity | Pressure | Rain* | Wind** | Luminosity | Snow |
|---|---|---|---|---|---|---|---|
| 1777831047 | 18.33° C | 33% | 1018.9 hPa | - | - | - | - |
| 1777830147 | 18.33° C | 33% | 1018.9 hPa | - | - | - | - |
| 1777829247 | 18.89° C | 32% | 1019 hPa | - | - | - | - |
| 1777828347 | 19.44° C | 32% | 1019 hPa | - | - | - | - |
| 1777827447 | 20° C | 30% | 1019.3 hPa | - | - | - | - |
| 1777826547 | 20.56° C | 30% | 1019 hPa | - | - | - | - |
| 1777825647 | 20.56° C | 29% | 1018.6 hPa | - | - | - | - |
| 1777824747 | 21.11° C | 29% | 1018.7 hPa | - | - | - | - |
| 1777823846 | 21.11° C | 28% | 1018.7 hPa | - | - | - | - |
| 1777822946 | 21.11° C | 29% | 1018.9 hPa | - | - | - | - |
| 1777822046 | 21.67° C | 29% | 1019 hPa | - | - | - | - |
| 1777821146 | 21.67° C | 28% | 1019.2 hPa | - | - | - | - |
| 1777820246 | 21.67° C | 29% | 1019.2 hPa | - | - | - | - |
| 1777819346 | 21.67° C | 29% | 1019.5 hPa | - | - | - | - |
| 1777818446 | 21.67° C | 29% | 1019.7 hPa | - | - | - | - |
| 1777817546 | 21.11° C | 29% | 1019.8 hPa | - | - | - | - |
| 1777816645 | 21.11° C | 29% | 1019.7 hPa | - | - | - | - |
| 1777815745 | 21.11° C | 30% | 1019.9 hPa | - | - | - | - |
| 1777814845 | 21.11° C | 30% | 1020 hPa | - | - | - | - |
| 1777813945 | 21.11° C | 30% | 1020.1 hPa | - | - | - | - |
| 1777813045 | 20.56° C | 31% | 1020.2 hPa | - | - | - | - |
| 1777812145 | 20.56° C | 31% | 1020.2 hPa | - | - | - | - |
| 1777811245 | 20.56° C | 31% | 1020.1 hPa | - | - | - | - |
| 1777810345 | 20.56° C | 32% | 1020.2 hPa | - | - | - | - |
| 1777809444 | 20° C | 34% | 1020.3 hPa | - | - | - | - |
* Rain since midnight (hover to see other rain measurements)
** Current wind speed in m/s (hover to see current wind gust speed)